Regional Weather Roundup
Issued by NWS

Home | Current Version | Previous Version | Text Only | Print | Product List | Glossary Off
Versions: 1 2 3 4 5 6 7 8 9 10 11 12 13 14 15 16 17 18 19 20 21 22 23 24 25 26 27

000
ASUS45 KCYS 232110
RWRWY

WYOMING REGIONAL WEATHER ROUNDUP
NATIONAL WEATHER SERVICE CHEYENNE WY
300 PM MDT WED APR 23 2014

NOTE:  "FAIR" INDICATES FEW OR NO CLOUDS BELOW 12,000 FEET
WITH NO SIGNIFICANT WEATHER AND/OR OBSTRUCTIONS TO VISIBILITY.

WYZ001-232200-
YELLOWSTONE NATIONAL PARK

CITY           SKY/WX    TMP DP  RH WIND       PRES   REMARKS
LK YELLOWSTONE   N/A     32  11  41 W9        29.89R WCI  24
W YELLOWSTONE  NOT AVBL

$$
WYZ002>013-054>058-071-098>099-232200-
NORTHERN WYOMING

CITY           SKY/WX    TMP DP  RH WIND       PRES   REMARKS
JACKSON        PTSUNNY   37  14  38 SW10G17   29.93S WCI  30
CODY           MOSUNNY   46  19  34 W22G30    29.79R
GREYBULL       CLOUDY    54  17  23 W28G36    29.74R
WORLAND        PTSUNNY   51  27  39 N12G18    29.76R
SHERIDAN         N/A     45   7  21 W31G49      N/A
BUFFALO        CLOUDY    50  25  37 N16G25    29.74R
GILLETTE       MOSUNNY   49  33  54 NW17G26   29.72S
HULETT         CLOUDY    45  34  65 NW9       29.73
NEWCASTLE      FAIR      52  32  46 NW21G29   29.71

$$
WYZ014>020-022>026-101>103-232200-
CENTRAL WYOMING

CITY           SKY/WX    TMP DP  RH WIND       PRES   REMARKS
BIG PINEY      MOSUNNY   41  11  29 NW23G35   29.94R
PINEDALE       PTCLDY    37  12  35 W25G33    29.93R WCI  26
DUBOIS         CLOUDY    36   9  32 NW23G35   29.86R WCI  24
LANDER         SUNNY     50  11  20 W22G28    29.79R
RIVERTON       MOSUNNY   51   8  17 W20G35    29.78R
CASPER         SUNNY     56  10  16 SW25G36   29.72F
DOUGLAS        SUNNY     56  12  17 W31G37    29.72R

$$
WYZ021-027>030-104>119-232200-
SOUTHERN WYOMING

CITY           SKY/WX    TMP DP  RH WIND       PRES   REMARKS
EVANSTON       MOSUNNY   40  16  37 W23G36    30.00S WCI  30
KEMMERER       PTCLDY    37  10  32 W25G33    29.98R WCI  26
FORT BRIDGER   MOCLDY    42  23  46 W22G29    30.02R
ROCK SPRINGS   PTSUNNY   45   6  20 W25G39    29.93R
DIXON          FAIR      48  15  26 W13G23    29.92S
RAWLINS        SUNNY     48   2  15 W26G38    29.84S
SARATOGA       CLOUDY    45  12  26 W20G32    29.88S
LARAMIE        CLOUDY    50  20  30 W21G31    29.78R
CHEYENNE       CLOUDY    54  24  31 NW26G36   29.69R
TORRINGTON     PTSUNNY   61  21  21 W36G45    29.65F
PINE BLUFFS    CLOUDY    59  27  29 NW29G37   29.66R

$$



USA.gov is the U.S. government's official web portal to all federal, state and local government web resources and services.